Location: Days
(41.3591°N, 106.7339°W)
Time: 12:22:35
(UTC+00:00)

RS-15 - Pass Details

Date: 06 July 2022
Orbit: 1881 x 2163 km, 64.8° (Epoch: 13 August)

Event Time Altitude Azimuth Distance (km) Brightness Sun altitude
Rises 03:03:31 0° 314° (NW) 5,681 12.9 -4.0°
Reaches altitude 10° 03:07:56 10° 326° (NW) 4,688 11.5 -4.7°
Maximum altitude 03:18:08 28° 22° (NNE) 3,417 9.5 -6.2°
Drops below altitude 10° 03:28:09 10° 78° (ENE) 4,621 9.6 -7.7°
Sets 03:32:25 0° 90° (E) 5,588 10.0 -8.3°
